| time (UTC) | temp C | wind direction | speed KPH | gust KPH | rain 1hr cm | rain 24hr cm | rain mn cm | humidity % | barometer mb |
| 20260507030041 | 6 | 234 | 3.2 | 11.3 | 0.00 | 1.04 | 0.97 | 93 | 1007.8 |
| 20260507024539 | 6 | 255 | 3.2 | 8.0 | 0.00 | 1.09 | 0.97 | 93 | 1007.7 |
| 20260507023038 | 7 | 254 | 0.0 | 4.8 | 0.00 | 1.09 | 0.97 | 92 | 1007.9 |
| 20260507021537 | 7 | 261 | 0.0 | 1.6 | 0.00 | 1.09 | 0.97 | 92 | 1007.8 |
| 20260507020038 | 7 | 260 | 0.0 | 3.2 | 0.00 | 1.09 | 0.97 | 91 | 1007.8 |
| 20260507014549 | 7 | 260 | 0.0 | 1.6 | 0.00 | 1.09 | 0.97 | 91 | 1007.9 |
| 20260507013044 | 7 | 260 | 0.0 | 0.0 | 0.00 | 1.09 | 0.97 | 91 | 1008.0 |
| 20260507011539 | 7 | 260 | 0.0 | 1.6 | 0.00 | 1.09 | 0.97 | 91 | 1008.1 |
| 20260507010036 | 7 | 260 | 0.0 | 0.0 | 0.00 | 1.09 | 0.97 | 91 | 1007.9 |
| 20260507004534 | 7 | 260 | 0.0 | 1.6 | 0.00 | 1.09 | 0.97 | 90 | 1007.7 |
| 20260507003037 | 7 | 260 | 0.0 | 0.0 | 0.00 | 1.09 | 0.97 | 90 | 1007.5 |
| 20260507001537 | 7 | 260 | 0.0 | 1.6 | 0.00 | 1.09 | 0.97 | 89 | 1007.5 |
| 20260507000033 | 7 | 260 | 0.0 | 0.0 | 0.00 | 1.09 | 0.97 | 88 | 1007.3 |
| 20260506234532 | 7 | 260 | 0.0 | 3.2 | 0.00 | 1.09 | 0.97 | 88 | 1007.2 |
| 20260506233033 | 7 | 266 | 0.0 | 3.2 | 0.00 | 1.09 | 0.97 | 87 | 1007.3 |
| 20260506231532 | 7 | 266 | 1.6 | 6.4 | 0.00 | 1.09 | 0.97 | 86 | 1007.0 |
| 20260506230031 | 8 | 259 | 0.0 | 6.4 | 0.00 | 1.09 | 0.97 | 86 | 1007.0 |
| 20260506224531 | 8 | 261 | 0.0 | 6.4 | 0.00 | 1.09 | 0.97 | 86 | 1007.0 |
| 20260506223030 | 8 | 277 | 0.0 | 3.2 | 0.00 | 1.09 | 0.97 | 86 | 1006.9 |
| 20260506221530 | 8 | 273 | 0.0 | 4.8 | 0.00 | 1.09 | 0.97 | 86 | 1006.9 |
| 20260506220030 | 8 | 277 | 1.6 | 4.8 | 0.00 | 1.09 | 0.97 | 86 | 1007.0 |
| 20260506214529 | 8 | 255 | 1.6 | 6.4 | 0.00 | 1.09 | 0.97 | 86 | 1006.9 |
| 20260506213028 | 8 | 304 | 1.6 | 4.8 | 0.00 | 1.09 | 0.97 | 86 | 1006.9 |
| 20260506211527 | 7 | 302 | 0.0 | 4.8 | 0.00 | 1.09 | 0.97 | 86 | 1007.1 |
| 20260506210031 | 7 | 296 | 0.0 | 4.8 | 0.00 | 1.09 | 0.97 | 87 | 1007.0 |
| 20260506204526 | 7 | 280 | 1.6 | 6.4 | 0.00 | 1.09 | 0.97 | 87 | 1007.2 |
| 20260506203031 | 7 | 292 | 0.0 | 4.8 | 0.00 | 1.09 | 0.97 | 87 | 1007.0 |
| 20260506201526 | 7 | 261 | 0.0 | 6.4 | 0.00 | 1.09 | 0.97 | 88 | 1007.3 |
| 20260506200025 | 7 | 284 | 0.0 | 4.8 | 0.00 | 1.09 | 0.97 | 88 | 1007.3 |
| 20260506194525 | 7 | 271 | 1.6 | 4.8 | 0.00 | 1.09 | 0.97 | 87 | 1007.4 |
| 20260506193024 | 7 | 294 | 0.0 | 6.4 | 0.00 | 1.09 | 0.97 | 86 | 1007.4 |
| 20260506191523 | 7 | 325 | 0.0 | 3.2 | 0.00 | 1.09 | 0.97 | 86 | 1007.3 |
| 20260506190022 | 7 | 82 | 0.0 | 1.6 | 0.00 | 1.09 | 0.97 | 87 | 1007.2 |
| 20260506184522 | 7 | 72 | 1.6 | 4.8 | 0.00 | 1.17 | 0.97 | 87 | 1007.1 |
| 20260506183023 | 7 | 113 | 0.0 | 4.8 | 0.00 | 1.17 | 0.97 | 90 | 1007.2 |
| 20260506181526 | 7 | 113 | 0.0 | 3.2 | 0.00 | 1.17 | 0.97 | 90 | 1007.4 |
| 20260506180028 | 7 | 332 | 0.0 | 1.6 | 0.03 | 1.17 | 0.97 | 92 | 1007.5 |
| 20260506174514 | 6 | 291 | 0.0 | 3.2 | 0.03 | 1.17 | 0.97 | 92 | 1007.8 |
| 20260506173014 | 6 | 291 | 0.0 | 3.2 | 0.05 | 1.17 | 0.97 | 91 | 1008.0 |
| 20260506171523 | 6 | 296 | 0.0 | 4.8 | 0.05 | 1.17 | 0.97 | 93 | 1008.0 |
| 20260506170012 | 6 | 331 | 1.6 | 6.4 | 0.05 | 1.14 | 0.94 | 93 | 1008.4 |
| 20260506164510 | 6 | 292 | 1.6 | 4.8 | 0.08 | 1.14 | 0.94 | 94 | 1008.3 |
| 20260506163019 | 6 | 306 | 3.2 | 8.0 | 0.10 | 1.12 | 0.91 | 95 | 1008.4 |
| 20260506161511 | 6 | 311 | 1.6 | 8.0 | 0.15 | 1.12 | 0.91 | 96 | 1008.5 |
| 20260506160003 | 6 | 325 | 4.8 | 8.0 | 0.18 | 1.09 | 0.89 | 95 | 1008.6 |
| 20260506154600 | 6 | 294 | 1.6 | 8.0 | 0.20 | 1.09 | 0.89 | 96 | 1008.6 |
| 20260506153056 | 6 | 281 | 1.6 | 8.0 | 0.18 | 1.02 | 0.81 | 96 | 1008.7 |
| 20260506151553 | 6 | 292 | 4.8 | 9.7 | 0.15 | 0.97 | 0.76 | 95 | 1008.8 |
| 20260506150055 | 6 | 265 | 3.2 | 8.0 | 0.13 | 0.91 | 0.71 | 95 | 1008.8 |
| 20260506144553 | 6 | 360 | 0.0 | 3.2 | 0.13 | 0.89 | 0.69 | 95 | 1008.9 |
| 20260506143051 | 6 | 241 | 0.0 | 0.0 | 0.10 | 0.84 | 0.64 | 95 | 1008.8 |
| 20260506141550 | 6 | 241 | 0.0 | 8.0 | 0.10 | 0.81 | 0.61 | 95 | 1008.8 |
| 20260506140050 | 6 | 252 | 0.0 | 1.6 | 0.13 | 0.79 | 0.61 | 95 | 1008.8 |
| 20260506134612 | 6 | 252 | 0.0 | 0.0 | 0.13 | 0.76 | 0.56 | 95 | 1008.7 |
| 20260506133046 | 6 | 252 | 0.0 | 3.2 | 0.10 | 0.71 | 0.53 | 94 | 1008.6 |
| 20260506131604 | 6 | 247 | 0.0 | 6.4 | 0.13 | 0.71 | 0.51 | 94 | 1008.6 |
| 20260506130046 | 6 | 271 | 0.0 | 4.8 | 0.13 | 0.69 | 0.48 | 94 | 1008.8 |
| 20260506124542 | 6 | 257 | 1.6 | 6.4 | 0.13 | 0.69 | 0.43 | 94 | 1008.8 |
| 20260506123045 | 6 | 255 | 1.6 | 4.8 | 0.15 | 0.69 | 0.43 | 94 | 1008.9 |
| 20260506121539 | 6 | 263 | 0.0 | 4.8 | 0.20 | 0.64 | 0.41 | 94 | 1009.1 |
| 20260506120035 | 6 | 266 | 0.0 | 4.8 | 0.23 | 0.61 | 0.36 | 93 | 1009.0 |
| 20260506114540 | 6 | 271 | 0.0 | 4.8 | 0.23 | 0.56 | 0.33 | 93 | 1009.0 |
| 20260506113035 | 6 | 273 | 0.0 | 4.8 | 0.23 | 0.51 | 0.28 | 92 | 1009.1 |
| 20260506111528 | 6 | 286 | 0.0 | 6.4 | 0.15 | 0.43 | 0.20 | 92 | 1009.2 |
| 20260506110028 | 6 | 265 | 1.6 | 4.8 | 0.13 | 0.38 | 0.15 | 90 | 1009.3 |
| 20260506104523 | 7 | 250 | 0.0 | 4.8 | 0.08 | 0.33 | 0.10 | 89 | 1008.8 |
| 20260506103025 | 7 | 259 | 1.6 | 4.8 | 0.05 | 0.30 | 0.05 | 87 | 1008.5 |
| 20260506101518 | 7 | 246 | 0.0 | 3.2 | 0.03 | 0.28 | 0.05 | 85 | 1008.3 |
| 20260506100028 | 7 | 248 | 1.6 | 4.8 | 0.00 | 0.25 | 0.03 | 84 | 1008.3 |
| 20260506094516 | 8 | 248 | 0.0 | 8.0 | 0.00 | 0.25 | 0.03 | 82 | 1008.4 |
| 20260506093012 | 8 | 229 | 3.2 | 8.0 | 0.00 | 0.25 | 0.03 | 82 | 1008.4 |
| 20260506091510 | 8 | 240 | 3.2 | 16.1 | 0.00 | 0.25 | 0.03 | 83 | 1008.3 |
| 20260506090008 | 8 | 360 | 3.2 | 16.1 | 0.00 | 0.25 | 0.03 | 84 | 1008.0 |
| 20260506084507 | 8 | 219 | 1.6 | 9.7 | 0.03 | 0.25 | 0.03 | 84 | 1008.0 |
| 20260506083006 | 8 | 232 | 1.6 | 9.7 | 0.03 | 0.25 | 0.03 | 85 | 1008.2 |
| 20260506081504 | 8 | 360 | 3.2 | 12.9 | 0.03 | 0.25 | 0.03 | 85 | 1008.2 |
| 20260506073100 | 8 | 219 | 3.2 | 11.3 | 0.00 | 0.23 | 0.00 | 84 | 1008.1 |
| 20260506071558 | 8 | 360 | 6.4 | 11.3 | 0.00 | 0.23 | 0.00 | 84 | 1008.2 |
| 20260506070121 | 8 | 360 | 3.2 | 12.9 | 0.00 | 0.23 | 0.00 | 85 | 1007.9 |
| 20260506061549 | 8 | 238 | 4.8 | 9.7 | 0.00 | 0.23 | 0.00 | 87 | 1007.8 |
| 20260506044539 | 9 | 360 | 4.8 | 14.5 | 0.00 | 0.23 | 0.00 | 86 | 1007.6 |
| 20260506043034 | 8 | 223 | 6.4 | 14.5 | 0.03 | 0.23 | 0.00 | 86 | 1007.2 |
| 20260506041538 | 8 | 248 | 8.0 | 20.9 | 0.05 | 0.23 | 0.00 | 86 | 1007.1 |
| 20260506040029 | 9 | 360 | 8.0 | 16.1 | 0.08 | 0.23 | 0.00 | 88 | 1006.6 |
| 20260506034525 | 9 | 360 | 8.0 | 17.7 | 0.08 | 0.23 | 0.23 | 87 | 1006.4 |
| 20260506033022 | 10 | 213 | 8.0 | 17.7 | 0.08 | 0.23 | 0.23 | 87 | 1006.3 |
| 20260506031527 | 10 | 360 | 9.7 | 17.7 | 0.08 | 0.20 | 0.20 | 86 | 1006.1 |